#timestamp,LO_Frequency,Hit,StdDev 
1553439615.5,286047000.3,N
1553439635.3,286047002.4,N
1553439655.2,286046999.7,N
1553439675.9,286047001.1,N
1553439695.7,286047000.9,N
1553439715.6,286047001.2,N
1553439735.4,286046999.1,N
1553439755.2,286046997.0,N
1553439775.1,286046999.2,N
1553439776.0,286046999.2,N
1553439795.8,286046998.6,N
1553439815.7,286046997.3,N
1553439835.5,286046997.3,N
1553439855.3,286046999.5,N
1553439875.2,286047000.6,N
1553439895.0,286046998.5,N
1553439895.9,286046998.5,N
1553439915.7,286047001.2,N
1553439935.6,286046998.5,N
1553439955.4,286046998.1,N
1553439975.3,286047001.1,N
1553439995.1,286047002.5,N
1553439996.0,286047002.5,N
1553440015.8,286047001.9,N
1553440035.7,286047002.4,N
1553440055.5,286047002.5,N
1553440075.3,286047001.8,N
1553440095.2,286047002.8,N
1553440115.0,286047004.3,N
1553440115.9,286047004.3,N
1553440135.8,286047002.0,N
1553440155.6,286046999.8,N
1553440175.4,286047000.5,N
1553440195.3,286047000.1,N
1553440215.1,286047000.6,N
1553440235.9,286046998.3,N
1553440255.7,286046999.5,N
1553440275.5,286046997.1,N
1553440295.4,286046994.9,N
1553440315.2,286046997.1,N
1553440335.0,286046996.5,N
1553440335.9,286046996.5,N
1553440355.8,286046996.6,N
1553440375.6,286046999.4,N
1553440395.5,286046998.1,N
1553440415.3,286047001.2,N
1553440435.1,286047000.4,N
1553440455.9,286047000.1,N
1553440475.7,286047001.0,N
1553440495.5,286047000.6,N
1553440515.4,286046998.6,N
1553440535.2,286046999.1,N
1553440555.1,286046997.1,N
1553440556.0,286046997.1,N
1553440575.8,286046999.0,N
1553440595.6,286047001.1,N
1553440615.5,286046998.1,N
1553440635.3,286046999.9,N
1553440655.1,286046999.9,N
1553440675.9,286047001.1,N
1553440695.7,286046998.2,N
1553440715.6,286047000.9,N
1553440735.4,286046998.4,N
1553440755.2,286046996.8,N
1553440775.1,286046995.0,N
1553440776.0,286046995.0,N
1553440795.8,286046996.7,N
1553440815.6,286046996.7,N
1553440835.5,286046999.2,N
1553440855.3,286046998.7,N
1553440875.2,286047000.7,N
1553440895.9,286046999.7,N
1553440915.7,286046999.8,N
1553440935.6,286046999.9,N
1553440955.4,286047001.1,N
1553440975.2,286046999.0,N
1553440995.1,286046998.9,N
1553440996.0,286046998.9,N
1553441015.8,286047000.5,N
1553441035.7,286047001.5,N
1553441055.5,286047001.5,N
1553441075.3,286047001.6,N
1553441095.2,286047000.1,N
1553441115.0,286047001.3,N
1553441115.9,286047001.3,N
1553441135.7,286047002.4,N
1553441155.6,286047001.8,N
1553441175.4,286047002.7,N
1553441195.3,286047000.1,N
1553441215.1,286046999.9,N
1553441235.8,286047000.5,N
1553441255.7,286047000.8,N
1553441275.5,286047000.2,N
1553441295.3,286047000.1,N
1553441315.2,286047000.6,N
1553441335.0,286047000.5,N
1553441335.9,286047000.5,N
1553441355.8,286046999.5,N
1553441375.6,286046996.9,Y
1553441395.4,286046999.5,P
1553441415.3,286046998.6,P
1553441435.1,286046998.7,N
1553441455.9,286046998.7,N
1553441475.4,286046996.8,Y
1553441495.2,286046998.8,P
1553441515.0,286046999.6,N
1553441515.9,286046999.6,N
1553441535.8,286046997.0,Y
1553441555.6,286046999.0,P
1553441575.5,286046998.9,P
1553441595.3,286047001.2,P
1553441615.1,286046998.4,N
1553441635.9,286046998.5,N
1553441655.7,286047001.2,N
1553441675.5,286047002.3,N
1553441695.4,286047000.1,N
1553441715.2,286046999.9,N
1553441735.0,286046999.8,N
1553441736.0,286046999.8,N
1553441755.8,286046998.2,N
1553441775.6,286046998.7,N
1553441795.5,286046998.7,N
1553441815.3,286047002.2,N
1553441835.1,286047001.5,N
1553441855.9,286047003.5,N
1553441875.7,286047001.4,N
1553441895.5,286047001.9,N
1553441915.4,286047001.3,N
1553441935.2,286047001.9,N
1553441955.1,286047001.3,N
1553441956.0,286047001.3,N
1553441975.8,286047001.9,N
1553441995.6,286047002.3,N
1553442015.5,286047002.5,N
1553442035.3,286047001.7,N
1553442055.1,286047004.3,N
1553442075.9,286047003.2,N
1553442095.7,286047001.8,N
1553442115.6,286047002.7,N
1553442135.4,286047000.3,N
1553442155.2,286046999.8,N
1553442175.1,286047003.9,N
1553442176.0,286047003.9,N
1553442195.8,286047002.2,N
1553442215.6,286047000.0,N
1553442235.5,286046998.3,N
1553442255.3,286047001.1,N
1553442275.2,286047000.5,N
1553442295.9,286046998.9,N
1553442315.7,286046998.4,N
1553442335.6,286047001.1,N
1553442355.4,286046999.4,N
1553442375.3,286046997.0,N
1553442395.1,286046996.9,N
1553442396.0,286046996.9,N
1553442415.8,286046998.7,N
1553442435.7,286046997.5,N
1553442455.5,286046996.5,N
1553442475.3,286046998.9,N
1553442495.2,286046996.8,N
1553442515.0,286046997.0,N
1553442515.9,286046997.0,N
1553442535.8,286046996.7,N
1553442555.6,286046999.0,N
1553442575.4,286047001.2,N
1553442595.3,286046998.2,N
1553442615.1,286047000.7,N
1553442635.8,286047000.6,N
1553442655.7,286046999.1,N
1553442675.5,286046997.7,N
1553442695.4,286046997.4,N
1553442715.2,286046995.5,N
1553442735.0,286046997.5,N
1553442735.9,286046997.5,N
1553442755.8,286046994.9,Y
1553442775.6,286046996.6,P
1553442795.4,286046999.2,N
1553442815.3,286046996.5,P
1553442835.1,286046996.6,N
1553442855.9,286046996.9,N
1553442875.7,286046999.2,N
1553442895.5,286046994.9,Y
1553442915.4,286046999.1,P
1553442935.2,286046999.1,N
1553442955.0,286046996.9,P
1553442955.9,286046996.9,Y
1553442975.8,286046999.5,P
1553442995.6,286046997.2,P
1553443015.5,286046996.0,P
1553443035.3,286046998.0,N
1553443055.1,286046996.8,N
1553443075.9,286046999.5,N
1553443095.7,286046998.9,N
1553443115.5,286046998.9,N
1553443135.4,286046996.7,N
1553443155.2,286046997.5,N
1553443175.1,286046995.3,Y
1553443176.0,286046995.3,P
1553443195.8,286046998.5,N
